| time (UTC) | temp F | wind direction | speed MPH | gust MPH | rain 1hr in | rain 24hr in | rain mn in | humidity % | barometer mb |
| 20260505203100 | 57 | 0 | 4.0 | 11.0 | 0.00 | 0.00 | 0.00 | 30 | 1007.4 |
| 20260505201553 | 56 | 285 | 5.0 | 16.0 | 0.00 | 0.00 | 0.00 | 32 | 1007.7 |
| 20260505200054 | 56 | 286 | 5.0 | 15.0 | 0.00 | 0.00 | 0.00 | 32 | 1007.7 |
| 20260505194609 | 55 | 291 | 7.0 | 19.0 | 0.00 | 0.00 | 0.00 | 32 | 1008.0 |
| 20260505193052 | 55 | 266 | 7.0 | 13.0 | 0.00 | 0.00 | 0.00 | 33 | 1008.1 |
| 20260505191606 | 55 | 207 | 4.0 | 15.0 | 0.00 | 0.00 | 0.00 | 33 | 1008.3 |
| 20260505190054 | 54 | 285 | 7.0 | 14.0 | 0.00 | 0.00 | 0.00 | 33 | 1008.3 |
| 20260505184553 | 54 | 295 | 6.0 | 14.0 | 0.00 | 0.00 | 0.00 | 33 | 1008.2 |
| 20260505183055 | 54 | 261 | 8.0 | 17.0 | 0.00 | 0.00 | 0.00 | 33 | 1007.9 |
| 20260505181552 | 54 | 284 | 7.0 | 12.0 | 0.00 | 0.00 | 0.00 | 33 | 1007.8 |
| 20260505180057 | 54 | 291 | 10.0 | 15.0 | 0.00 | 0.00 | 0.00 | 31 | 1007.6 |
| 20260505174554 | 55 | 284 | 8.0 | 14.0 | 0.00 | 0.00 | 0.00 | 30 | 1007.6 |
| 20260505173113 | 54 | 302 | 6.0 | 21.0 | 0.00 | 0.00 | 0.00 | 29 | 1007.7 |
| 20260505171618 | 54 | 297 | 5.0 | 15.0 | 0.00 | 0.00 | 0.00 | 31 | 1007.7 |
| 20260505170055 | 53 | 255 | 6.0 | 13.0 | 0.00 | 0.00 | 0.00 | 34 | 1007.7 |
| 20260505164558 | 53 | 269 | 6.0 | 14.0 | 0.00 | 0.00 | 0.00 | 32 | 1007.4 |
| 20260505163052 | 53 | 281 | 5.0 | 15.0 | 0.00 | 0.00 | 0.00 | 33 | 1007.4 |
| 20260505161555 | 53 | 293 | 4.0 | 13.0 | 0.00 | 0.00 | 0.00 | 36 | 1007.8 |
| 20260505153054 | 53 | 288 | 3.0 | 12.0 | 0.00 | 0.00 | 0.00 | 37 | 1007.4 |
| 20260505151555 | 53 | 278 | 4.0 | 16.0 | 0.00 | 0.00 | 0.00 | 38 | 1007.5 |
| 20260505150110 | 52 | 231 | 5.0 | 14.0 | 0.00 | 0.00 | 0.00 | 39 | 1007.4 |
| 20260505130111 | 49 | 276 | 3.0 | 7.0 | 0.00 | 0.00 | 0.00 | 43 | 1007.5 |
| 20260505124608 | 48 | 295 | 2.0 | 5.0 | 0.00 | 0.00 | 0.00 | 45 | 1007.4 |
| 20260505123105 | 47 | 259 | 2.0 | 7.0 | 0.00 | 0.00 | 0.00 | 46 | 1008.0 |
| 20260505121623 | 46 | 0 | 0.0 | 3.0 | 0.00 | 0.00 | 0.00 | 53 | 1007.2 |
| 20260505120054 | 45 | 261 | 1.0 | 5.0 | 0.00 | 0.00 | 0.00 | 54 | 1008.1 |
| 20260505114555 | 44 | 256 | 0.0 | 2.0 | 0.00 | 0.00 | 0.00 | 57 | 1006.9 |
| 20260505113105 | 44 | 0 | 0.0 | 0.0 | 0.00 | 0.00 | 0.00 | 59 | 1006.1 |
| 20260505111556 | 44 | 0 | 0.0 | 2.0 | 0.00 | 0.00 | 0.00 | 56 | 1006.0 |
| 20260505101559 | 45 | 339 | 0.0 | 2.0 | 0.00 | 0.00 | 0.00 | 53 | 1005.7 |
| 20260505100136 | 46 | 302 | 0.0 | 5.0 | 0.00 | 0.00 | 0.00 | 52 | 1005.9 |
| 20260505094555 | 46 | 0 | 1.0 | 4.0 | 0.00 | 0.00 | 0.00 | 51 | 1005.4 |
| 20260505093054 | 46 | 0 | 0.0 | 3.0 | 0.00 | 0.00 | 0.00 | 51 | 1005.7 |
| 20260505091616 | 46 | 0 | 0.0 | 2.0 | 0.00 | 0.00 | 0.00 | 52 | 1005.9 |
| 20260505084552 | 47 | 0 | 0.0 | 2.0 | 0.00 | 0.00 | 0.00 | 52 | 1004.8 |
| 20260505083053 | 47 | 235 | 0.0 | 3.0 | 0.00 | 0.00 | 0.00 | 51 | 1004.5 |
| 20260505081551 | 48 | 284 | 1.0 | 5.0 | 0.00 | 0.00 | 0.00 | 48 | 1004.1 |
| 20260505080056 | 49 | 77 | 3.0 | 12.0 | 0.00 | 0.00 | 0.00 | 48 | 1003.9 |
| 20260505074555 | 49 | 0 | 0.0 | 3.0 | 0.00 | 0.00 | 0.00 | 52 | 1003.5 |
| 20260505073100 | 50 | 301 | 1.0 | 7.0 | 0.00 | 0.00 | 0.00 | 50 | 1003.1 |
| 20260505071553 | 50 | 108 | 1.0 | 4.0 | 0.00 | 0.00 | 0.00 | 49 | 1002.9 |
| 20260505070052 | 51 | 290 | 0.0 | 7.0 | 0.00 | 0.00 | 0.00 | 47 | 1002.8 |
| 20260505064602 | 52 | 259 | 1.0 | 5.0 | 0.00 | 0.00 | 0.00 | 48 | 1002.7 |
| 20260505063053 | 53 | 297 | 1.0 | 5.0 | 0.00 | 0.00 | 0.00 | 48 | 1002.1 |
| 20260505061552 | 54 | 274 | 2.0 | 8.0 | 0.00 | 0.00 | 0.00 | 46 | 1002.0 |
| 20260505060055 | 55 | 215 | 1.0 | 5.0 | 0.00 | 0.00 | 0.00 | 45 | 1001.9 |
| 20260505054618 | 55 | 338 | 1.0 | 4.0 | 0.00 | 0.00 | 0.00 | 43 | 1001.9 |
| 20260505053056 | 56 | 281 | 3.0 | 9.0 | 0.00 | 0.00 | 0.00 | 42 | 1001.6 |
| 20260505051552 | 57 | 273 | 3.0 | 7.0 | 0.00 | 0.00 | 0.00 | 40 | 1001.3 |
| 20260505041605 | 60 | 293 | 4.0 | 9.0 | 0.00 | 0.00 | 0.00 | 35 | 1000.2 |
| 20260505040058 | 61 | 278 | 3.0 | 6.0 | 0.00 | 0.00 | 0.00 | 38 | 1000.0 |
| 20260505034554 | 61 | 273 | 2.0 | 6.0 | 0.00 | 0.00 | 0.00 | 39 | 999.9 |
| 20260505033056 | 62 | 287 | 1.0 | 5.0 | 0.00 | 0.00 | 0.00 | 38 | 1000.1 |
| 20260505031554 | 62 | 268 | 2.0 | 4.0 | 0.00 | 0.00 | 0.00 | 37 | 1000.0 |
| 20260505030107 | 63 | 281 | 2.0 | 5.0 | 0.00 | 0.00 | 0.00 | 36 | 999.6 |
| 20260505024603 | 63 | 308 | 4.0 | 10.0 | 0.00 | 0.00 | 0.00 | 34 | 999.4 |
| 20260505023059 | 64 | 266 | 4.0 | 9.0 | 0.00 | 0.00 | 0.00 | 34 | 999.1 |
| 20260505021601 | 65 | 231 | 5.0 | 13.0 | 0.00 | 0.00 | 0.00 | 35 | 998.8 |
| 20260505020105 | 67 | 290 | 5.0 | 10.0 | 0.00 | 0.00 | 0.00 | 35 | 998.3 |
| 20260505014556 | 68 | 285 | 4.0 | 8.0 | 0.00 | 0.00 | 0.00 | 35 | 997.9 |
| 20260505013059 | 68 | 266 | 4.0 | 7.0 | 0.00 | 0.00 | 0.00 | 39 | 997.4 |
| 20260505011552 | 69 | 278 | 2.0 | 8.0 | 0.00 | 0.00 | 0.00 | 38 | 996.5 |
| 20260505010111 | 70 | 255 | 3.0 | 8.0 | 0.00 | 0.00 | 0.00 | 38 | 996.0 |
| 20260505004555 | 72 | 229 | 3.0 | 12.0 | 0.00 | 0.00 | 0.00 | 37 | 995.8 |
| 20260505003124 | 74 | 276 | 2.0 | 4.0 | 0.00 | 0.00 | 0.00 | 35 | 995.3 |
| 20260505001558 | 74 | 248 | 3.0 | 6.0 | 0.00 | 0.00 | 0.00 | 34 | 994.7 |
| 20260505000059 | 75 | 225 | 4.0 | 7.0 | 0.00 | 0.00 | 0.00 | 33 | 994.8 |
| 20260504234555 | 75 | 258 | 3.0 | 8.0 | 0.00 | 0.00 | 0.00 | 32 | 994.8 |
| 20260504233057 | 75 | 280 | 5.0 | 10.0 | 0.00 | 0.00 | 0.00 | 31 | 995.0 |
| 20260504231552 | 75 | 303 | 5.0 | 12.0 | 0.00 | 0.00 | 0.00 | 31 | 995.4 |
| 20260504230113 | 75 | 269 | 10.0 | 22.0 | 0.00 | 0.00 | 0.00 | 29 | 995.5 |
| 20260504224612 | 76 | 291 | 6.0 | 14.0 | 0.00 | 0.00 | 0.00 | 30 | 995.4 |
| 20260504223053 | 79 | 271 | 9.0 | 18.0 | 0.00 | 0.00 | 0.00 | 29 | 995.4 |
| 20260504221553 | 79 | 245 | 10.0 | 19.0 | 0.00 | 0.00 | 0.00 | 28 | 995.2 |
| 20260504220057 | 79 | 240 | 10.0 | 17.0 | 0.00 | 0.00 | 0.00 | 28 | 995.5 |
| 20260504214551 | 78 | 231 | 8.0 | 21.0 | 0.00 | 0.00 | 0.00 | 28 | 995.7 |
| 20260504213056 | 78 | 221 | 9.0 | 17.0 | 0.00 | 0.00 | 0.00 | 27 | 995.7 |
| 20260504211558 | 79 | 295 | 7.0 | 21.0 | 0.00 | 0.00 | 0.00 | 27 | 995.8 |
| 20260504210101 | 79 | 263 | 11.0 | 20.0 | 0.00 | 0.00 | 0.00 | 26 | 995.9 |